Location: Rounton
(54.4000°N, 1.3500°W)
Time: 03:23:47
(UTC+00:00)

SR - Pass Details

Date: 06 December 2021
Orbit: 582 x 872 km, 66.7° (Epoch: 26 January)

Event Time Altitude Azimuth Distance (km) Brightness Sun altitude
Exits shadow 04:55:21 21° 19° (NNE) 1,327 ? -26.9°
Maximum altitude 04:55:28 22° 21° (NNE) 1,326 ? -26.9°
Drops below altitude 10° 04:58:50 10° 73° (ENE) 1,941 ? -26.4°
Sets 05:01:34 0° 89° (E) 2,872 ? -26.0°
